Weather History for Ubon Ratchathani, Thailand

Change the Weather History Date:

Monday, February 18, 2013

  Actual Average Record
Temperature  
Mean Temperature 86 °F -  
Max Temperature 98 °F 94 °F - ()
Min Temperature 73 °F 70 °F - ()
Cooling Degree Days 20    
Growing Degree Days 36 (Base 50)    
Moisture  
Dew Point 65 °F    
Average Humidity 54    
Maximum Humidity 74    
Minimum Humidity 29    
Precipitation  
Precipitation 0.00 in 0.03 in - ()
Sea Level Pressure  
Sea Level Pressure 29.74 in    
Wind  
Wind Speed 2 mph ()    
Max Wind Speed 6 mph    
Max Gust Speed -    
Visibility 3.9 miles    
Events      
T = Trace of Precipitation, MM = Missing Value Source: Averaged Metar Reports

Daily Weather History Graph

Daily Weather History Graph

Search for Another Location

Airport:

Trip Planner

Search our weather history database for the weather conditions in past years. The results will help you decide how hot, cold, wet, or windy it might be!

Date:

Astronomy

Feb. 18, 2013 Rise Set
Actual Time 6:23 AM ICT 6:05 PM ICT
Civil Twilight 6:02 AM ICT 6:27 PM ICT
Nautical Twilight 5:36 AM ICT 6:52 PM ICT
Astronomical Twilight 5:11 AM ICT 7:17 PM ICT
Moon 11:51 AM ICT (2/18) 12:12 AM ICT (2/18)
Length of Visible Light 12h 25m
Length of Day
11h 41m
First Quarter, 53% of the Moon is Illuminated
Feb 18
First Quarter
Feb 26
Full
Mar 5
Last Quarter
Mar 12
New
Mar 20
First Quarter

Hourly Weather History & Observations

Time (ICT) Temp. Heat Index Dew Point Humidity Pressure Visibility Wind Dir Wind Speed Gust Speed Precip Events Conditions
12:00 AM 80.6 °F 83.9 °F 69.8 °F 70% 29.74 in 5.6 mi Calm Calm - N/A   Unknown
1:00 AM 78 °F - 69 °F 67% 29.77 in 6 mi SSE 2.3 mph - -   Mist
1:00 AM 78.8 °F - 69.8 °F 74% 29.77 in 5.6 mi SSE 2.3 mph - N/A   Unknown
2:00 AM 77.0 °F - 68.0 °F 74% 29.74 in 5.6 mi SSE 3.5 mph - N/A   Unknown
4:00 AM 77.0 °F - 68.0 °F 74% 29.74 in 5.0 mi NE 2.3 mph - N/A   Unknown
5:00 AM 75.2 °F - 66.2 °F 73% 29.74 in 4.3 mi Calm Calm - N/A   Unknown
6:00 AM 75.2 °F - 66.2 °F 73% 29.77 in 3.7 mi ESE 2.3 mph - N/A   Unknown
7:00 AM 74 °F - 64 °F 62% 29.83 in 3 mi Calm Calm - -   Mist
7:00 AM 75.2 °F - 64.4 °F 69% 29.80 in 3.1 mi Calm Calm - N/A   Mist
8:00 AM 77.0 °F - 62.6 °F 61% 29.80 in 3.1 mi ESE 5.8 mph - N/A   Mist
1:00 PM 93 °F - 64 °F 29% 29.75 in 4 mi SSW 5.8 mph - -   Haze
1:00 PM 93.2 °F 94.9 °F 64.4 °F 38% 29.74 in 3.7 mi SSW 5.8 mph - N/A   Unknown
2:00 PM 95.0 °F 96.0 °F 62.6 °F 34% 29.68 in 3.7 mi North 3.5 mph - N/A   Unknown
3:00 PM 95.0 °F 97.0 °F 64.4 °F 36% 29.68 in 3.7 mi NE 3.5 mph - N/A   Scattered Clouds
4:00 PM 96.8 °F 97.1 °F 60.8 °F 30% 29.65 in 3.7 mi SW 5.8 mph - N/A   Scattered Clouds
5:00 PM 95.0 °F 95.2 °F 60.8 °F 32% 29.68 in 3.7 mi SSW 2.3 mph - N/A   Unknown
5:30 PM 95.0 °F 95.2 °F 60.8 °F 32% 29.68 in 3.7 mi NE 2.3 mph - N/A   Unknown
7:00 PM 90 °F - 66 °F 35% 29.72 in 2 mi NE 2.3 mph - -   Haze
8:00 PM 86.0 °F 88.2 °F 66.2 °F 51% 29.74 in 2.5 mi Calm Calm - N/A   Haze
9:00 PM 84.2 °F 88.4 °F 69.8 °F 62% 29.77 in 2.5 mi Calm Calm - N/A   Haze